Flag for Vietnam Weather past 2 weeks in Hanoi, Vietnam

Now
91 °F

Scattered clouds.


Feels Like: 103 °F
Forecast: 78 / 95 °F
Wind: 5 mph from North

Location: Ha Noi Airport

Current Time: Jul 22, 2014 at 2:40:43 PM

Latest Report: Jul 22, 2014 at 2:00 PM


Visibility: N/A

Pressure: 29.62 "Hg

Humidity: 59%

Dew point: 75 °F

Location of HanoiLocation

Historic Weather in Hanoi — Graph

°F

Hanoi temperature yesterday

Maximum temperature yesterday: 91 °F (at 3:00 PM)
Minimum temperature yesterday: 77 °F (at 4:00 AM)
Average temperature yesterday: 82 °F

Past Weeks' High & Low Weather Summary

 TemperatureHumidityPressure
High97 °F (Jul 9, 3:00 PM)100% (Jul 13, 1:30 AM)29.77 "Hg (Jul 13, 1:30 AM)
Low77 °F (Jul 16, 3:30 AM)53% (Jul 9, 3:00 PM)29.42 "Hg (Jul 19, 2:30 AM)
Average84 °F83%29.62 "Hg
* Reported Jul 7 1:00 PM — Jul 22 1:00 PM, Hanoi, Weather by CustomWeather, © 2014

Note: Actual official high and low records may vary slightly from our data, if they occured in-between our weather recording intervals... More about our weather records

Advertising

Hanoi weather history for previous 24 hours

 ConditionsComfort  
Time TempWeatherWind HumidityBarometerVisibility
1:00 PM
Jul 22
91 °FScattered clouds.6 mph63%29.65 "HgN/A
12:30 PM91 °FScattered clouds.5 mph63%29.65 "HgN/A
12:00 PM90 °FScattered clouds.6 mph63%29.68 "HgN/A
11:30 AM90 °FScattered clouds.6 mph67%29.71 "HgN/A
11:00 AM90 °FScattered clouds.5 mph67%29.71 "HgN/A
10:30 AM90 °FScattered clouds.5 mph71%29.71 "HgN/A
10:00 AM88 °FScattered clouds.5 mph70%29.71 "HgN/A
9:30 AM86 °FBroken clouds.3 mph79%29.71 "HgN/A
9:00 AM86 °FBroken clouds.2 mph75%29.71 "HgN/A
8:30 AM84 °FBroken clouds.3 mph84%29.71 "HgN/A
8:00 AM82 °FBroken clouds.2 mph89%29.71 "HgN/A
7:30 AM82 °FBroken clouds.2 mph89%29.71 "HgN/A
7:00 AM81 °FBroken clouds.3 mph94%29.68 "Hg4 mi
6:30 AM79 °FBroken clouds.5 mph100%29.68 "Hg3 mi
6:00 AM79 °FBroken clouds.2 mph94%29.68 "Hg3 mi
5:30 AM79 °FBroken clouds.3 mph94%29.65 "Hg4 mi
5:00 AM79 °FPartly cloudy.3 mph94%29.65 "Hg3 mi
4:30 AM79 °FPassing clouds.3 mph94%29.65 "Hg3 mi
4:00 AM79 °FPartly cloudy.3 mph94%29.65 "Hg4 mi
3:30 AM79 °FPartly cloudy.3 mph94%29.65 "Hg4 mi
3:00 AM79 °FFog.3 mph100%29.65 "Hg2 mi
2:30 AM79 °FPartly cloudy.6 mph94%29.65 "Hg4 mi
2:00 AM79 °FPartly cloudy.6 mph94%29.65 "Hg4 mi
1:30 AM79 °FPassing clouds.5 mph94%29.68 "Hg3 mi
1:00 AM79 °FLight rain. Fog.3 mph94%29.68 "Hg3 mi
12:30 AM79 °FLight rain. Fog.5 mph100%29.68 "Hg2 mi
12:00 AM79 °FHeavy rain. Partly cloudy.6 mph100%N/A2 mi
11:30 PM
Jul 21
79 °FRain. Partly cloudy.5 mph94%29.71 "Hg3 mi
11:00 PM79 °FPassing clouds.3 mph94%29.71 "Hg4 mi
10:30 PM79 °FThunderstorms. Partly cloudy.6 mph94%29.71 "Hg2 mi
10:00 PM79 °FStrong thunderstorms. Partly cloudy.1 mph94%29.71 "Hg2 mi
9:30 PM77 °FThunderstorms. Partly cloudy.6 mph94%29.71 "Hg4 mi
9:00 PM79 °FStrong thunderstorms. Partly cloudy.5 mph100%29.71 "Hg1 mi
8:30 PM79 °FThunderstorms. Partly cloudy.1 mph94%29.68 "Hg1 mi
8:00 PM79 °FStrong thunderstorms. Partly cloudy.9 mph94%29.68 "Hg1 mi
7:30 PM79 °FHeavy rain. Partly cloudy.7 mph100%29.65 "Hg1 mi
7:00 PM81 °FHeavy rain. Partly cloudy.6 mph89%29.65 "Hg2 mi
6:30 PM82 °FBroken clouds.6 mph84%29.62 "HgN/A
6:00 PM84 °FBroken clouds.5 mph79%29.65 "HgN/A
5:30 PM86 °FBroken clouds.9 mph79%29.62 "HgN/A
5:00 PM86 °FThunderstorms. Broken clouds.13 mph75%N/AN/A
4:30 PM88 °FBroken clouds.15 mph75%29.59 "HgN/A
4:00 PM88 °FBroken clouds.12 mph70%29.62 "HgN/A
3:30 PM88 °FBroken clouds.14 mph75%29.62 "HgN/A
3:00 PM91 °FBroken clouds.7 mph67%29.62 "HgN/A
2:30 PM90 °FBroken clouds.6 mph67%29.62 "HgN/A
2:00 PM90 °FBroken clouds.6 mphN/AN/AN/A
Weather by CustomWeather, © 2014

See weather overviewHow to use our weather pages